Hourly Weather Roundup
Issued by NWS Central Illinois

Home | Current Version | Previous Version | Text Only | Print | Product List | Glossary On
Versions: 1 2 3 4 5 6 7 8 9 10 11 12 13 14 15 16 17 18 19 20 21 22 23 24 25 26 27 28 29 30 31 32 33 34 35 36 37 38 39 40 41 42 43 44 45 46 47 48 49 50
000
NZUS43 KILX 210210
HWRILX

AREA WEATHER ROUNDUP
NATIONAL WEATHER SERVICE, LINCOLN IL
800 PM CST THU NOV 20 2014


CITY           SKY/WX    TMP DP  RH WIND       PRES   REMARKS
BLOOMINGTON    CLEAR     23  10  57 NW10      30.25R WCI  12
CHAMPAIGN      CLEAR     19  10  68 NW8       30.25R WCI   9
DECATUR        CLEAR     26  11  52 NW7       30.26R WCI  18
FLORA          CLEAR     23  20  91 CALM      30.28R
GALESBURG      CLEAR     15   8  73 W5        30.27R WCI   7
JACKSONVILLE   CLEAR     22  11  62 N5        30.28R WCI  16
LACON          CLEAR     19   7  60 NW6       30.27R WCI  10
LAWRENCEVILLE  CLEAR     25  16  68 CALM      30.28R
LITCHFIELD     CLEAR     25  16  70 N5        30.27R WCI  19
$$


CITY           SKY/WX    TMP DP  RH WIND       PRES   REMARKS
LINCOLN        CLEAR     25  11  57 NW5       30.29R WCI  19
MACOMB         CLEAR     18   9  68 N6        30.30R WCI   9
MATTOON        CLEAR     25  16  68 W5        30.25R WCI  19
MT CARMEL AP   CLEAR     25  18  74 CALM      30.28R
OLNEY-NOBLE AP CLEAR     21  18  86 CALM      30.28R
PARIS          CLEAR     22  17  82 W5        30.26R WCI  16
PEORIA         CLEAR     23   8  52 NW3       30.28R
PONTIAC        CLEAR     20   8  62 NW7       30.26R WCI  11
RANTOUL        CLEAR     23  10  59 NW7       30.25R WCI  14
ROBINSON       CLEAR     22  18  83 W6        30.28R WCI  15
SPRINGFIELD    CLEAR     23  10  57 NW7       30.28R WCI  15
TAYLORVILLE    CLEAR     23  16  74 W5        30.27R WCI  17
$$

...REGIONAL REPORTS...


CITY           SKY/WX    TMP DP  RH WIND       PRES   REMARKS
CHICAGO O`HARE CLEAR     20   3  48 NW14G22   30.21R WCI   7
KANKAKEE       CLEAR     22   8  56 W9        30.24R WCI  11
MOLINE         CLEAR     20   8  60 NW7       30.28R WCI  11
MOUNT VERNON   CLEAR     21  16  79 CALM      30.28R
PITTSFIELD     CLEAR     24  14  66 CALM      30.29R
QUINCY         CLEAR     24  11  57 N5        30.27R WCI  18
ROCKFORD       CLEAR     16   4  59 NW10      30.25R WCI   4
$$


CITY           SKY/WX    TMP DP  RH WIND       PRES   REMARKS
BURLINGTON     CLEAR     22  10  60 N5        30.28R WCI  16
CEDAR RAPIDS   PTCLDY    12   7  80 W7        30.26R WCI   1
DES MOINES     CLEAR     21  11  65 N5        30.27R WCI  15
KIRKSVILLE     CLEAR     20  14  77 CALM      30.26R
OTTUMWA        PTCLDY    19   9  65 N6        30.28R WCI  11
ST LOUIS       CLEAR     30  18  60 CALM      30.28R
$$


CITY           SKY/WX    TMP DP  RH WIND       PRES   REMARKS
TERRE HAUTE    CLEAR     26  17  68 W6        30.26R WCI  19
EVANSVILLE     CLEAR     26  19  74 CALM      30.29R
INDIANAPOLIS   PTCLDY    23  14  68 SW10      30.20R WCI  12
LAFAYETTE      CLEAR     22  10  60 W5        30.23R WCI  16
MADISON        CLEAR     13  -1  54 W5        30.21R WCI   5
MILWAUKEE      CLEAR     18  -1  43 NW13G22   30.19R WCI   5
$$




USA.gov is the U.S. government's official web portal to all federal, state and local government web resources and services.